Change the Weather History Date:

Saturday, May 3, 2014

  Actual Average Record
Temperature  
Mean Temperature 50 °F -  
Max Temperature 66 °F 68 °F 88 °F (2001)
Min Temperature 37 °F 44 °F 29 °F (1966)
Degree Days  
Heating Degree Days 14    
Moisture  
Dew Point 42 °F    
Average Humidity 74    
Maximum Humidity 97    
Minimum Humidity 37    
Precipitation  
Precipitation 0.13 in - - ()
Sea Level Pressure  
Sea Level Pressure 29.80 in    
Wind  
Wind Speed 4 mph (SW)    
Max Wind Speed 13 mph    
Max Gust Speed 22 mph    
Visibility 6 miles    
Events Fog , Rain , Thunderstorm    
Averages and records for this station are not official NWS values.
T = Trace of Precipitation, MM = Missing Value Source: NWS Daily Summary

Daily Weather History Graph

Daily Weather History Graph

Search for Another Location

Airport or City:

Trip Planner

Search our weather history database for the weather conditions in past years. The results will help you decide how hot, cold, wet, or windy it might be!

Date:

Astronomy

May. 03, 2014 Rise Set
Actual Time 5:48 AM EDT 7:53 PM EDT
Civil Twilight 5:18 AM EDT 8:23 PM EDT
Nautical Twilight 4:41 AM EDT 9:01 PM EDT
Astronomical Twilight 4:01 AM EDT 9:41 PM EDT
Moon 9:15 AM EDT (5/3) 11:58 PM EDT (5/3)
Length of Visible Light 15h 05m
Length of Day
14h 04m
Waxing Crescent, 19% of the Moon is Illuminated
May 3
Waxing Crescent
May 6
First Quarter
May 14
Full
May 21
Last Quarter
May 28
New

Hourly Weather History & Observations

Time (EDT) Temp. Windchill Dew Point Humidity Pressure Visibility Wind Dir Wind Speed Gust Speed Precip Events Conditions
12:53 AM 43.0 °F 41.3 °F 37.0 °F 80% 29.85 in 10.0 mi WSW 3.5 mph - N/A   Clear
1:53 AM 43.0 °F - 37.0 °F 80% 29.85 in 10.0 mi Calm Calm - N/A   Clear
2:53 AM 41.0 °F 39.0 °F 36.0 °F 82% 29.85 in 10.0 mi WSW 3.5 mph - N/A   Clear
3:53 AM 39.9 °F - 36.0 °F 86% 29.86 in 10.0 mi Calm Calm - N/A   Clear
4:53 AM 42.1 °F - 36.0 °F 79% 29.86 in 10.0 mi Calm Calm - N/A   Clear
5:53 AM 37.9 °F - 35.1 °F 89% 29.87 in 10.0 mi Calm Calm - N/A   Clear
6:53 AM 43.0 °F - 39.0 °F 86% 29.89 in 10.0 mi Calm Calm - N/A   Clear
7:53 AM 51.1 °F - 37.9 °F 61% 29.88 in 10.0 mi Calm Calm - N/A   Clear
8:53 AM 57.0 °F - 37.9 °F 49% 29.88 in 10.0 mi WSW 6.9 mph - N/A   Scattered Clouds
9:53 AM 60.1 °F - 39.0 °F 46% 29.86 in 10.0 mi North - - N/A   Mostly Cloudy
10:53 AM 62.1 °F - 39.0 °F 43% 29.84 in 10.0 mi WSW 9.2 mph - N/A   Clear
11:53 AM 63.0 °F - 37.9 °F 40% 29.82 in 10.0 mi WSW 12.7 mph 21.9 mph N/A   Partly Cloudy
12:53 PM 64.9 °F - 39.0 °F 39% 29.81 in 10.0 mi SSW 11.5 mph 17.3 mph N/A   Partly Cloudy
1:53 PM 64.0 °F - 37.0 °F 37% 29.79 in 10.0 mi SW 12.7 mph 19.6 mph N/A   Mostly Cloudy
2:53 PM 64.0 °F - 37.0 °F 37% 29.78 in 10.0 mi SW 8.1 mph - N/A   Overcast
4:53 PM 62.1 °F - 39.9 °F 44% 29.75 in 10.0 mi SSW 9.2 mph 18.4 mph 0.00 in   Mostly Cloudy
5:53 PM 60.1 °F - 42.1 °F 51% 29.76 in 10.0 mi South 8.1 mph - 0.00 in   Overcast
6:53 PM 60.1 °F - 39.9 °F 47% 29.75 in 10.0 mi South 6.9 mph - N/A   Mostly Cloudy
7:20 PM 60.1 °F - 41.0 °F 49% 29.77 in 6.0 mi SW 9.2 mph - 0.01 in Rain , Thunderstorm Light Thunderstorms and Rain
7:30 PM 55.9 °F - 45.0 °F 67% 29.79 in 2.0 mi WSW 10.4 mph 19.6 mph 0.06 in Rain , Thunderstorm Thunderstorms and Rain
7:41 PM 54.0 °F - 46.0 °F 75% 29.80 in 2.5 mi WSW 5.8 mph 18.4 mph 0.10 in Rain Rain
7:48 PM 53.6 °F - 46.4 °F 77% 29.79 in 4.0 mi SSW 6.9 mph - 0.11 in Rain Light Rain
7:53 PM 53.1 °F - 46.9 °F 80% 29.79 in 5.0 mi South 8.1 mph - 0.11 in Rain Light Rain
8:53 PM 52.0 °F - 48.0 °F 86% 29.78 in 10.0 mi SE 3.5 mph - 0.02 in   Scattered Clouds
9:36 PM 48.0 °F - 46.9 °F 96% 29.78 in 1.2 mi SW 3.5 mph - N/A   Partly Cloudy
9:38 PM 48.0 °F - 46.9 °F 96% 29.78 in 0.8 mi SW 3.5 mph - N/A   Mist
9:47 PM 48.2 °F - 46.4 °F 93% 29.78 in 1.0 mi Calm Calm - N/A   Scattered Clouds
9:53 PM 48.9 °F - 46.9 °F 93% 29.78 in 1.8 mi Calm Calm - N/A   Scattered Clouds
9:59 PM 48.9 °F - 48.0 °F 97% 29.78 in 3.0 mi Calm Calm - N/A   Scattered Clouds
10:06 PM 48.0 °F - 46.9 °F 96% 29.78 in 1.8 mi Calm Calm - N/A   Scattered Clouds
10:14 PM 48.0 °F - 46.9 °F 96% 29.77 in 0.5 mi Calm Calm - N/A Fog Fog
10:38 PM 46.9 °F - 46.0 °F 97% 29.76 in 0.2 mi Calm Calm - N/A Fog Fog
10:53 PM 46.9 °F - 46.0 °F 97% 29.75 in 0.8 mi Calm Calm - N/A   Mist
10:56 PM 48.0 °F - 46.0 °F 93% 29.75 in 1.2 mi Calm Calm - N/A   Partly Cloudy
11:06 PM 46.9 °F - 46.0 °F 97% 29.76 in 2.5 mi WSW 5.8 mph - N/A   Scattered Clouds
11:20 PM 48.0 °F - 46.9 °F 96% 29.77 in 4.0 mi SW 5.8 mph - 0.00 in Rain Light Rain
11:53 PM 51.1 °F - 46.9 °F 86% 29.75 in 10.0 mi SSW 4.6 mph - 0.00 in   Overcast